Volver al catálogo

QIANFAN-41

ActivoComunicacionesPO
NORAD 62242·PAYLOAD·🇨🇳 China

Lanzado Dec 5, 2024 desde Taiyuan Satellite Launch Center

Loading…

Próximos Pases (próximas 24 horas)

TLE

ActualizadoSource: Space-Track

Época: Sep 14, 2026, 13:44 UTC

1 62242U 24232F   26257.57255590  .00000098  00000-0  13238-3 0  9996
2 62242  89.0157  13.5102 0015857 113.3418 246.9404 13.51029193136493

Sigue QIANFAN-41 en tiempo real con AllMySat

Download on the App Store